When you browse on this site, cookies collect data to enhance your experience and personalize the content and advertising you see.
Visit our Privacy Policy to learn more. By continuing to use the site, you agree to this use of cookies and data.
  • In Austria
  • List of Countries
  • For 7 days
  • Water Temperature
  • Weather Map
  • News
  • Weather Widgets
  • user-avatar
    Login

    Hourly Weather Mareynica

    Today, 5 June, Friday

    Time Temperature Precipitation Wind Pressure Humidity
    00:00 +8°C° 0 mm 2 mps 737 mmHg 96%
    01:00 +8°C° 0 mm 2 mps 737 mmHg 96%
    02:00 +7°C° 0 mm 2 mps 737 mmHg 97%
    03:00 +7°C° 0 mm 2 mps 737 mmHg 97%
    04:00 +8°C° 0 mm 2 mps 737 mmHg 97%
    05:00 +8°C° 0 mm 2 mps 737 mmHg 96%
    06:00 +10°C° 0 mm 2 mps 737 mmHg 91%
    07:00 +12°C° 0 mm 2 mps 738 mmHg 85%
    08:00 +14°C° 0 mm 2 mps 738 mmHg 78%
    09:00 +14°C° 0.1 mm 3 mps 738 mmHg 73%
    10:00 +16°C° 0.1 mm 3 mps 738 mmHg 67%
    11:00 +17°C° 0.1 mm 3 mps 738 mmHg 62%
    12:00 +18°C° 0 mm 3 mps 738 mmHg 58%
    13:00 +19°C° 0 mm 3 mps 738 mmHg 55%
    14:00 +20°C° 0 mm 3 mps 738 mmHg 51%
    15:00 +19°C° 0 mm 2 mps 738 mmHg 53%
    16:00 +19°C° 0 mm 2 mps 738 mmHg 55%
    17:00 +19°C° 0 mm 2 mps 738 mmHg 57%
    18:00 +18°C° 0 mm 2 mps 739 mmHg 66%
    19:00 +16°C° 0 mm 2 mps 739 mmHg 75%
    20:00 +14°C° 0 mm 2 mps 739 mmHg 85%
    21:00 +13°C° 0 mm 2 mps 739 mmHg 88%
    22:00 +12°C° 0 mm 2 mps 740 mmHg 91%
    23:00 +10°C° 0 mm 2 mps 740 mmHg 94%

    Tomorrow, 6 June, Saturday

    Time Temperature Precipitation Wind Pressure Humidity
    00:00 +11°C° 0 mm 3 mps 740 mmHg 93%
    01:00 +11°C° 0 mm 3 mps 740 mmHg 92%
    02:00 +11°C° 0 mm 3 mps 740 mmHg 91%
    03:00 +11°C° 0 mm 4 mps 739 mmHg 92%
    04:00 +12°C° 0 mm 4 mps 739 mmHg 92%
    05:00 +13°C° 0 mm 4 mps 739 mmHg 92%
    06:00 +15°C° 0 mm 4 mps 739 mmHg 88%
    07:00 +17°C° 0 mm 4 mps 739 mmHg 83%
    08:00 +19°C° 0 mm 4 mps 739 mmHg 79%
    09:00 +19°C° 0.6 mm 4 mps 739 mmHg 84%
    10:00 +17°C° 0.6 mm 5 mps 740 mmHg 89%
    11:00 +17°C° 0.6 mm 5 mps 740 mmHg 95%
    12:00 +17°C° 0.3 mm 5 mps 740 mmHg 92%
    13:00 +19°C° 0.3 mm 5 mps 740 mmHg 88%
    14:00 +20°C° 0.3 mm 5 mps 741 mmHg 85%
    15:00 +21°C° 0.2 mm 4 mps 741 mmHg 81%
    16:00 +21°C° 0.2 mm 4 mps 741 mmHg 76%
    17:00 +22°C° 0.2 mm 4 mps 741 mmHg 71%
    18:00 +21°C° 0 mm 3 mps 742 mmHg 76%
    19:00 +19°C° 0 mm 3 mps 742 mmHg 80%
    20:00 +17°C° 0 mm 2 mps 743 mmHg 85%
    21:00 +16°C° 0 mm 2 mps 744 mmHg 88%
    22:00 +15°C° 0 mm 2 mps 744 mmHg 91%
    23:00 +13°C° 0 mm 1 mps 745 mmHg 94%

    Day after tomorrow, 7 June, Sunday

    Time Temperature Precipitation Wind Pressure Humidity
    00:00 +13°C° 0 mm 1 mps 745 mmHg 94%
    01:00 +12°C° 0 mm 1 mps 746 mmHg 93%
    02:00 +11°C° 0 mm 1 mps 747 mmHg 93%
    03:00 +12°C° 0 mm 1 mps 747 mmHg 91%
    04:00 +12°C° 0 mm 0 mps 747 mmHg 89%
    05:00 +12°C° 0 mm 0 mps 747 mmHg 87%
    06:00 +15°C° 0 mm 1 mps 748 mmHg 79%
    07:00 +18°C° 0 mm 1 mps 748 mmHg 71%
    08:00 +20°C° 0 mm 1 mps 748 mmHg 63%
    09:00 +22°C° 0 mm 1 mps 748 mmHg 59%
    10:00 +23°C° 0 mm 2 mps 749 mmHg 54%
    11:00 +25°C° 0 mm 2 mps 749 mmHg 49%
    12:00 +25°C° 0 mm 2 mps 749 mmHg 48%
    13:00 +26°C° 0 mm 2 mps 749 mmHg 47%
    14:00 +26°C° 0 mm 2 mps 748 mmHg 46%
    15:00 +26°C° 0 mm 2 mps 748 mmHg 50%
    16:00 +26°C° 0 mm 2 mps 748 mmHg 53%
    17:00 +26°C° 0 mm 2 mps 748 mmHg 56%
    18:00 +24°C° 0 mm 2 mps 748 mmHg 65%
    19:00 +21°C° 0 mm 2 mps 748 mmHg 74%
    20:00 +19°C° 0 mm 2 mps 747 mmHg 83%
    21:00 +18°C° 0 mm 2 mps 748 mmHg 85%
    22:00 +17°C° 0 mm 2 mps 748 mmHg 87%
    23:00 +16°C° 0 mm 2 mps 748 mmHg 89%

    8 June, Monday

    Time Temperature Precipitation Wind Pressure Humidity
    00:00 +16°C° 0 mm 2 mps 748 mmHg 91%
    01:00 +16°C° 0 mm 2 mps 748 mmHg 93%
    02:00 +15°C° 0 mm 2 mps 748 mmHg 94%
    03:00 +16°C° 0 mm 2 mps 748 mmHg 93%
    04:00 +16°C° 0 mm 2 mps 747 mmHg 91%
    05:00 +17°C° 0 mm 2 mps 747 mmHg 90%
    06:00 +18°C° 0 mm 3 mps 747 mmHg 85%
    07:00 +20°C° 0 mm 3 mps 748 mmHg 81%
    08:00 +22°C° 0 mm 3 mps 748 mmHg 77%
    09:00 +24°C° 0 mm 3 mps 748 mmHg 72%
    10:00 +26°C° 0 mm 3 mps 748 mmHg 66%
    11:00 +28°C° 0 mm 3 mps 748 mmHg 61%
    12:00 +28°C° 0.3 mm 3 mps 748 mmHg 63%
    13:00 +28°C° 0.3 mm 3 mps 747 mmHg 64%
    14:00 +27°C° 0.3 mm 3 mps 747 mmHg 66%
    15:00 +27°C° 0.2 mm 3 mps 747 mmHg 66%
    16:00 +27°C° 0.2 mm 2 mps 747 mmHg 67%
    17:00 +27°C° 0.2 mm 2 mps 746 mmHg 67%
    18:00 +26°C° 0.1 mm 2 mps 746 mmHg 75%
    19:00 +24°C° 0.1 mm 2 mps 746 mmHg 83%
    20:00 +23°C° 0.1 mm 2 mps 746 mmHg 91%
    21:00 +21°C° 0.1 mm 2 mps 746 mmHg 93%
    22:00 +20°C° 0.1 mm 2 mps 747 mmHg 94%
    23:00 +20°C° 0.1 mm 1 mps 747 mmHg 96%

    9 June, Tuesday

    Time Temperature Precipitation Wind Pressure Humidity
    00:00 +20°C° 0 mm 1 mps 747 mmHg 96%
    01:00 +19°C° 0 mm 1 mps 747 mmHg 97%
    02:00 +19°C° 0 mm 1 mps 746 mmHg 97%
    03:00 +19°C° 0 mm 1 mps 747 mmHg 96%
    04:00 +20°C° 0 mm 1 mps 747 mmHg 96%
    05:00 +20°C° 0 mm 1 mps 747 mmHg 96%
    06:00 +22°C° 0 mm 1 mps 747 mmHg 89%
    07:00 +23°C° 0 mm 1 mps 747 mmHg 83%
    08:00 +25°C° 0 mm 1 mps 747 mmHg 77%
    09:00 +26°C° 0.9 mm 1 mps 747 mmHg 75%
    10:00 +26°C° 0.9 mm 2 mps 747 mmHg 73%
    11:00 +27°C° 0.9 mm 2 mps 748 mmHg 71%
    12:00 +28°C° 0.3 mm 2 mps 747 mmHg 66%
    13:00 +29°C° 0.3 mm 2 mps 747 mmHg 62%
    14:00 +29°C° 0.3 mm 2 mps 747 mmHg 58%
    15:00 +28°C° 0.6 mm 2 mps 747 mmHg 65%
    16:00 +28°C° 0.6 mm 2 mps 747 mmHg 71%
    17:00 +27°C° 0.6 mm 2 mps 747 mmHg 78%
    18:00 +25°C° 0.1 mm 2 mps 747 mmHg 83%
    19:00 +24°C° 0.1 mm 2 mps 747 mmHg 88%
    20:00 +23°C° 0.1 mm 1 mps 747 mmHg 93%
    21:00 +22°C° 0 mm 1 mps 747 mmHg 94%
    22:00 +21°C° 0 mm 1 mps 747 mmHg 95%
    23:00 +21°C° 0 mm 1 mps 747 mmHg 96%

    10 June, Wednesday

    Time Temperature Precipitation Wind Pressure Humidity
    00:00 +20°C° 0 mm 1 mps 747 mmHg 96%
    01:00 +20°C° 0 mm 1 mps 747 mmHg 97%
    02:00 +18°C° 0 mm 2 mps 747 mmHg 97%
    03:00 +19°C° 0 mm 2 mps 748 mmHg 97%
    04:00 +20°C° 0 mm 1 mps 748 mmHg 97%
    05:00 +20°C° 0 mm 1 mps 748 mmHg 97%
    06:00 +20°C° 0 mm 2 mps 748 mmHg 92%
    07:00 +23°C° 0 mm 2 mps 748 mmHg 87%
    08:00 +24°C° 0 mm 2 mps 748 mmHg 82%
    09:00 +25°C° 0.7 mm 2 mps 748 mmHg 78%
    10:00 +26°C° 0.7 mm 2 mps 748 mmHg 75%
    11:00 +27°C° 0.7 mm 2 mps 748 mmHg 71%
    12:00 +27°C° 1 mm 2 mps 748 mmHg 72%
    13:00 +27°C° 1 mm 2 mps 748 mmHg 73%
    14:00 +27°C° 1 mm 2 mps 747 mmHg 74%
    15:00 +27°C° 0.3 mm 2 mps 747 mmHg 75%
    16:00 +27°C° 0.3 mm 2 mps 747 mmHg 76%
    17:00 +27°C° 0.3 mm 2 mps 747 mmHg 77%
    18:00 +26°C° 0.2 mm 2 mps 747 mmHg 82%
    19:00 +25°C° 0.2 mm 1 mps 747 mmHg 87%
    20:00 +24°C° 0.2 mm 1 mps 747 mmHg 92%
    21:00 +23°C° 0.1 mm 1 mps 747 mmHg 93%
    22:00 +22°C° 0.1 mm 1 mps 747 mmHg 94%
    23:00 +21°C° 0.1 mm 1 mps 747 mmHg 95%
    Show more